Weather in Nizhnyaya Dobrinka

Russia / Volgograd Oblast     50°50′18″N   44°43′55″E
temp.,
°C
wind,
m/s
gust,
m/s
humid.,
%
clouds,
%
prec.,
mm/h
press.,
hPa
HPBL,
m
29 november, mon
mon2900:00+5se3796100 0.0 1015169
03:00+5se4894100 0.0 1015231
06:00+4sse51293100 0.0 1014287
09:00+6sse71593100 0.1 1014448
12:00+6sse91890100 1.4 1012514
15:00+7sse91789100 2.2 1011635
18:00+7sse81691100 0.4 1010477
21:00+7s91992100 0.6 1008564
30 november, tue
tue3000:00+8sse122487100 0.9 1003670
03:00+8sse132682100 1.3 999780
06:00+8s122191100 0.3 997766
09:00+9ssw101890100 1.0 9961131
12:00+10sw91584100 1.1 9961206
15:00+10sw7127715 1.4 998853
18:00+6sw4882100 0.0 998159
21:00+4ssw339010 0.0 99846
1 december, wed
wed100:00+4se0191100 0.0 99510
03:00+4ene3392100 0.1 99374
06:00+5e51297100 4.3 987476
09:00+3nnw91093100 5.0 987438
12:00+1wnw10159083 0.8 992870
15:00+1w813809 0.9 996835
18:00−1wsw613795 0.0 1000564
21:00−1wsw51182100 0.0 1001464
2 december, thu
thu200:00−1sw4988100 0.0 1003397
03:00−1sw489247 0.0 1004324
06:00−2sw499659 0.0 1006290
09:00−1w5986100 0.1 1009772
12:000w6871100 0.0 1011989
15:00+1wsw59676 0.0 1013859
18:00−2sw4118228 0.0 1014324
21:00−2ssw5129092 0.0 1014357
3 december, fri
fri300:000ssw6138127 0.0 1014397
03:000ssw61589100 0.0 1014392
06:00+1sw61393100 0.0 1014363
09:00+2sw51297100 0.1 1016456
12:00+4ssw61293100 0.1 1015451
15:00+4ssw5139197 0.1 1016444
18:00+4s7148389 0.0 1016384
21:00+3s71775100 0.0 1016383